Tracking 20623 objects as of 4-Apr-2020
HD Live streaming from Space Station
objects crossing your sky now

DELTA 1 DEB

Track DELTA 1 DEB now!
10-day predictions


NORAD ID: 10183
Int'l Code: 1977-065M
Perigee: 565.7 km
Apogee: 1,379.8 km
Inclination: 29.2 °
Period: 104.4 minutes
Semi major axis: 7343 km
RCS: 0.111 m2 (medium)
Launch date: July 14, 1977
Source: United States (US)
Launch site: AIR FORCE EASTERN TEST RANGE (AFETR)

Note: This is SATELLITE DEBRIS
aabbcc
Your satellite tracking list
Your tracking list is empty




NASA's NSSDC Master Catalog

Two Line Element Set (TLE):
1 10183U 77065M   20094.53909753 +.00000236 +00000-0 +43439-4 0  9992
2 10183 029.2084 184.3556 0554304 063.5667 302.0699 13.79521652095730
Source of the keplerian elements: AFSPC